Flag for U.S.A. Weather past 2 weeks in St. Petersburg, Florida, U.S.A.

Now
87 °F

Sunny.


Feels Like: 89 °F
Forecast: 75 / 89 °F
Wind: 12 mph from East

Location: Whitted Airport

Current Time: May 28, 2015 at 6:51:38 PM

Latest Report: May 28, 2015 at 5:53 PM


Visibility: 10 mi

Pressure: 30.03 "Hg

Humidity: 48%

Dew point: 65 °F

Location of St. PetersburgLocation

Historic Weather in St. Petersburg — Graph

°F

St. Petersburg temperature yesterday

Maximum temperature yesterday: 89 °F (at 4:53 PM)
Minimum temperature yesterday: 77 °F (at 3:53 AM)
Average temperature yesterday: 82 °F

Past Weeks' High & Low Weather Summary

 TemperatureHumidityPressure
High93 °F (May 25, 3:53 PM)94% (May 26, 8:59 PM)30.21 "Hg (May 26, 8:59 PM)
Low75 °F (May 26, 10:04 PM)40% (May 15, 5:53 PM)29.93 "Hg (May 20, 6:53 PM)
Average82 °F70%30.10 "Hg
* Reported May 13 4:53 PM — May 28 4:53 PM, St. Petersburg, Weather by CustomWeather, © 2015

Note: Actual official high and low records may vary slightly from our data, if they occured in-between our weather recording intervals... More about our weather records

Advertising

St. Petersburg weather history for previous 24 hours

 ConditionsComfort  
Time TempWeatherWind HumidityBarometerVisibility
4:53 PM
Thu, May 28
87 °FSunny.10 mph48%30.03 "Hg10 mi
3:53 PM87 °FSunny.14 mph48%30.04 "Hg10 mi
2:53 PM86 °FSunny.8 mph46%30.07 "Hg10 mi
1:53 PM85 °FSunny.8 mph50%30.09 "Hg10 mi
12:53 PM84 °FSunny.12 mph53%30.12 "Hg10 mi
11:53 AM83 °FSunny.8 mph57%30.13 "Hg10 mi
10:53 AM81 °FSunny.10 mph60%30.14 "Hg10 mi
9:53 AM80 °FSunny.10 mph64%30.14 "Hg10 mi
8:53 AM77 °FSunny.12 mph71%30.13 "Hg10 mi
7:53 AM76 °FSunny.13 mph72%30.11 "Hg10 mi
6:53 AM76 °FClear.13 mph69%30.09 "Hg10 mi
5:53 AM76 °FClear.15 mph72%30.08 "Hg10 mi
4:53 AM76 °FClear.15 mph77%30.08 "Hg10 mi
3:53 AM77 °FClear.14 mph74%30.08 "Hg10 mi
2:53 AM77 °FClear.17 mph77%30.09 "Hg10 mi
1:53 AM78 °FClear.18 mph74%30.11 "Hg10 mi
12:53 AM79 °FClear.18 mph72%30.12 "Hg10 mi
11:53 PM
Wed, May 27
80 °FClear.21 mph67%30.12 "Hg10 mi
10:53 PM81 °FClear.21 mph65%30.12 "Hg10 mi
9:53 PM83 °FClear.17 mph61%30.10 "Hg10 mi
8:53 PM84 °FSunny.18 mph55%30.09 "Hg10 mi
7:53 PM86 °FSunny.16 mph49%30.08 "Hg10 mi
6:53 PM88 °FSunny.17 mph45%30.07 "Hg10 mi
Weather by CustomWeather, © 2015

See weather overviewHow to use our weather pages